• Join FlightAware (Why Join?)
  • Login
  • US Flag 
05:31AM EST


 

Airport Tracker/Info


-or-


 

Live Flight TrackerFlight Track Log ✈ TAM3960 ✈ 14-Jun-2013 ✈ SBSP / CGH - SBRJ / SDU

Flight Track Log - Related Links

Times and Time Zones

All times are in EDT time to prevent confusion due to time zone crossing. See the TAM3960 flight status page for this flight to view local times or setup timezone preferences in your user account.

Time Position Orientation Groundspeed Altitude Reporting Facility
EDT Latitude Longitude Course Direction KTS MPH feet Rate Location/Type
08:36PM -23.6300 -46.6580 21° North  Level FlightAware
08:37PM -23.6290 -46.6560 61° Northeast 140 Level FlightAware
08:37PM -23.6280 -46.6570 318° Northwest 143 Level FlightAware
08:38PM -23.6250 -46.6580 343° North 145 Level FlightAware
08:41PM -23.5674 -46.3601 78° East  Level Estimated
08:42PM -23.5447 -46.2434 78° East  Level Estimated
08:43PM -23.5219 -46.1267 78° East  Level Estimated
08:44PM -23.4989 -46.0101 78° East  Level Estimated
08:45PM -23.4760 -45.8935 78° East  Level Estimated
08:48PM -23.5692 -46.3747 78° East  Level Estimated
08:49PM -23.5465 -46.2580 78° East  Level Estimated
08:50PM -23.5237 -46.1413 78° East  Level Estimated
08:50PM -23.6230 -46.6600 78° East  Level FlightAware
08:52PM -23.5844 -46.4594 78° East  Level Estimated
08:53PM -23.5618 -46.3426 78° East  Level Estimated
08:54PM -23.5392 -46.2259 78° East  Level Estimated
08:55PM -23.5164 -46.1092 78° East  Level Estimated
08:56PM -23.4936 -45.9925 78° East  Level Estimated
08:57PM -23.4706 -45.8759 78° East  Level Estimated
08:58PM -23.4476 -45.7593 78° East  Level Estimated
08:59PM -23.4245 -45.6428 78° East  Level Estimated
09:00PM -23.4013 -45.5263 78° East  Level Estimated
09:01PM -23.6210 -46.6610 318° Northwest  Level FlightAware
09:02PM -23.6200 -46.6610 360° North 1,182 Level FlightAware
09:02PM -23.6210 -46.6610 180° South 1,319 Level FlightAware
09:04PM -23.6270 -46.6560 143° Southeast 1,519 Level FlightAware
09:05PM -23.6500 -46.6390 146° Southeast 147 169 4,000 5,053 Climbing FlightAware
09:05PM -23.6660 -46.6270 146° Southeast 179 206 4,800 1,821 Climbing FlightAware
09:05PM -23.6890 -46.6110 148° Southeast 221 254 5,700 2,087 Climbing FlightAware
09:06PM -23.6990 -46.5950 124° Southeast 242 278 6,400 2,538 Climbing FlightAware
09:06PM -23.7010 -46.5820 100° East 253 291 6,800 1,950 Climbing FlightAware
09:06PM -23.6950 -46.5590 74° East 272 313 7,700 2,947 Climbing FlightAware
09:07PM -23.6740 -46.5100 65° Northeast 287 330 9,600 2,464 Climbing FlightAware
09:07PM -23.6600 -46.4690 70° East 293 337 10,000 358 Climbing FlightAware
09:08PM -23.6400 -46.4160 68° East 293 337 10,000 1,186 Level FlightAware
09:09PM -23.6190 -46.3420 73° East 347 399 11,700 2,523 Climbing FlightAware
09:09PM -23.5990 -46.2730 72° East 372 428 13,700 3,081 Climbing FlightAware
09:10PM -23.5810 -46.2120 72° East 384 442 15,500 3,000 Climbing FlightAware
09:11PM -23.5550 -46.1220 73° East 396 456 17,900 2,483 Climbing FlightAware
09:11PM -23.5380 -46.0630 73° East 410 472 19,100 2,700 Climbing FlightAware
09:12PM -23.5080 -45.9580 73° East 423 487 21,500 3,325 Climbing FlightAware
09:13PM -23.4870 -45.8860 72° East 411 473 23,700 3,036 Climbing FlightAware
09:14PM -23.4630 -45.8020 73° East 415 478 25,700 2,225 Climbing FlightAware
09:14PM -23.4360 -45.7090 72° East 417 480 27,000 886 Climbing FlightAware
09:15PM -23.4120 -45.6250 73° East 416 479 27,000  Level FlightAware
09:16PM -23.3890 -45.5460 72° East 417 480 27,000  Level FlightAware
09:16PM -23.3650 -45.4650 72° East 414 476 27,000  Level FlightAware
09:17PM -23.3400 -45.3800 72° East 420 483 27,000  Level FlightAware
09:18PM -23.3140 -45.2910 72° East 469 540 27,000  Level FlightAware
09:18PM -23.2850 -45.1930 72° East 475 547 27,000  Level FlightAware
09:19PM -23.2600 -45.1030 73° East 474 545 27,000  Level FlightAware
09:20PM -23.2400 -45.0130 76° East 474 545 27,000  Level FlightAware
09:21PM -23.2040 -44.8560 76° East 474 545 27,000 -383 Level FlightAware
09:22PM -23.1780 -44.7290 77° East 472 543 26,400 -1,030 Descending FlightAware
09:23PM -23.1570 -44.6260 78° East 469 540 25,300 -1,776 Descending FlightAware
09:23PM -23.1330 -44.5090 77° East 467 537 23,500 -2,182 Descending FlightAware
09:24PM -23.1130 -44.3830 80° East 477 549 21,300 -1,333 Descending FlightAware
09:25PM -23.1050 -44.3040 84° East 477 549 21,300  Level FlightAware
09:26PM -23.0980 -44.2290 84° East 477 549 21,300 -2,279 Level FlightAware
09:26PM -23.0860 -44.0960 84° East 17,200 -3,196 Descending FlightAware
09:27PM -23.0780 -44.0110 84° East 348 400 16,400 -988 Descending FlightAware
09:28PM -23.0720 -43.9470 84° East 327 376 15,800 -649 Descending FlightAware
09:28PM -23.0670 -43.8930 84° East 327 376 15,600 -146 Descending FlightAware
09:29PM -23.0610 -43.8260 84° East 327 376 15,600 -1,472 Level FlightAware
09:30PM -23.0540 -43.7600 83° East 13,500 -2,087 Descending FlightAware
09:31PM -23.0430 -43.6370 84° East 284 327 11,600 -1,545 Descending FlightAware
09:32PM -23.0300 -43.6010 69° East 280 322 10,900 -600 Descending FlightAware
09:32PM -23.0020 -43.5600 53° Northeast 280 322 10,900 -1,164 Level FlightAware
09:33PM -22.9850 -43.5360 52° Northeast 274 315 9,600 -2,400 Descending FlightAware
09:33PM -22.9640 -43.5060 53° Northeast 277 319 8,900 -1,158 Descending FlightAware
09:34PM -22.9400 -43.4730 52° Northeast 250 288 8,500 -857 Descending FlightAware
09:34PM -22.9240 -43.4480 55° Northeast 245 282 8,100 -842 Descending FlightAware
09:35PM -22.9020 -43.4180 51° Northeast 230 265 7,700 -885 Descending FlightAware
09:35PM -22.8850 -43.3920 55° Northeast 215 247 7,200 -1,333 Descending FlightAware
09:35PM -22.8800 -43.3850 52° Northeast 215 247 6,900 -915 Descending FlightAware
09:36PM -22.8620 -43.3380 67° East 226 260 6,300 -1,279 Descending FlightAware
09:36PM -22.8780 -43.3140 126° Southeast 221 254 5,600 -1,950 Descending FlightAware
09:37PM -22.8840 -43.2810 101° East 217 250 5,000 -1,071 Descending FlightAware
09:37PM -22.8900 -43.2550 104° East 209 241 4,600 -982 Descending FlightAware
09:38PM -22.8960 -43.2270 103° East 186 214 4,100 -1,345 Descending FlightAware
09:38PM -22.9010 -43.2030 103° East 164 189 3,300 -1,610 Descending FlightAware
09:38PM -22.9030 -43.1930 102° East 159 183 3,000 -1,650 Descending FlightAware
09:39PM -22.9100 -43.1720 110° East 153 176 2,200 -1,579 Descending FlightAware
09:39PM -22.9110 -43.1640 98° East 154 177 2,000 -1,091 Descending FlightAware
09:40PM -22.9060 -43.1390 78° East 147 169 1,400 -783 Descending FlightAware
09:40PM -22.9000 -43.1340 38° Northeast 139 160 1,400  Level FlightAware
09:40PM -22.8950 -43.1330 10° North 131 151 1,400 -429 Level FlightAware
09:40PM -22.8830 -43.1340 356° North 128 147 1,200 -667 Descending FlightAware
09:41PM -22.8760 -43.1400 322° Northwest 126 145 1,000 -857 Descending FlightAware
09:41PM -22.8740 -43.1470 287° West 126 145 800 -857 Descending FlightAware
09:41PM -22.8830 -43.1620 237° Southwest 119 137 400 -643 Descending FlightAware
09:42PM -22.8920 -43.1640 192° South 117 135 200 -462 Descending FlightAware
09:42PM -22.9100 -43.1630 177° South 100 115 -462 Descending FlightAware
09:43PM -22.9150 -43.1630 180° South 29 33  Level FlightAware
09:43PM -22.9150 -43.1670 270° West 29 33  Level FlightAware
09:46PM -22.9105 -43.1631 38° Northeast  Level Estimated
09:47PM -22.9105 -43.1631 250° West  Level Estimated
09:48PM -22.9105 -43.1631 250° West  Level Estimated
09:49PM -22.9105 -43.1631 250° West  Level Estimated
09:50PM -22.9105 -43.1631 250° West  Level Estimated
09:51PM -22.9105 -43.1631 250° West  Level Estimated
09:52PM -22.9105 -43.1631 250° West  Level Estimated
09:53PM -22.9105 -43.1631 250° West  Level Estimated
09:54PM -22.9105 -43.1631 250° West  Level Estimated
09:55PM -22.9105 -43.1631 250° West  Level Estimated
09:56PM -22.9105 -43.1631 250° West  Level Estimated
09:57PM -22.9105 -43.1631 250° West  Level Estimated
09:58PM -22.9105 -43.1631 250° West  Level Estimated
09:59PM -22.9105 -43.1631 250° West  Level Estimated
10:00PM -22.9105 -43.1631 250° West  Level Estimated